Location: Newark
(31.0436°N, 112.2008°E)
Time: 12:25:52
(UTC+00:00)

N. Korean satellite - Pass Details

Date: 29 January 2020
Orbit: 456 x 505 km, 97.2° (Epoch: 19 February)

Event Time Altitude Azimuth Distance (km) Brightness Sun altitude
Rises 21:21:28 0° 33° (NNE) 2,563 10.6 -26.5°
Reaches altitude 10° 21:24:11 10° 56° (NE) 1,688 9.9 -26.0°
Maximum altitude 21:26:29 16° 95° (E) 1,360 9.7 -25.5°
Drops below altitude 10° 21:28:47 10° 135° (SE) 1,695 10.0 -25.0°
Sets 21:31:30 0° 157° (SSE) 2,580 10.6 -24.4°
